Regional Weather Roundup
Issued by NWS Sioux Falls, SD

Home | Current Version | Previous Version | Graphics & Text | Print | Product List | Glossary Off
Versions: 1 2 3 4 5 6 7 8 9 10 11 12 13 14 15 16 17 18 19 20 21 22 23 24 25 26 27 28 29 30 31 32 33 34 35 36 37 38 39 40 41 42 43 44 45 46 47 48 49 50

000
ASUS43 KFSD 302202
RWRFSD

WEATHER ROUNDUP FOR SE SOUTH DAKOTA/SW MINNESOTA/NW IOWA
NATIONAL WEATHER SERVICE SIOUX FALLS SD
500 PM CDT WED JUL 30 2014

NOTE: "FAIR" INDICATES FEW OR NO CLOUDS BELOW 12,000 FEET WITH NO
SIGNIFICANT WEATHER AND OR OBSTRUCTIONS TO VISIBILITY.


SDZ038>040-050-052>070-302300-
SOUTHEAST SOUTH DAKOTA

CITY           SKY/WX    TMP DP  RH WIND       PRES   REMARKS
CHAMBERLAIN    MOSUNNY   83  55  37 SE5       30.10S
HURON          MOSUNNY   81  54  39 VRB5      30.10F
MADISON        FAIR      75  55  50 NE5       30.14S
MITCHELL       SUNNY     82  54  37 CALM      30.11F
SIOUX FALLS    MOSUNNY   79  54  41 NW6       30.12S
WINNER         FAIR      88  49  25 CALM      30.10F
YANKTON        SUNNY     77  54  44 SE7       30.12S
$$

MNZ071-072-080-081-089-090-097-098-302300-
SOUTHWEST MINNESOTA

CITY           SKY/WX    TMP DP  RH WIND       PRES   REMARKS
FAIRMONT       SUNNY     77  46  33 NW7       30.10S
JACKSON        SUNNY     77  52  41 NW8       30.12F
LUVERNE        SUNNY     79  50  36 NW6       30.12F
MARSHALL       MOSUNNY   77  52  41 N8        30.10F
MONTEVIDEO     SUNNY     81  55  41 N8        30.10F
PIPESTONE      MOSUNNY   75  52  43 W6        30.13F
REDWOOD FALLS  MOSUNNY   79  54  41 NW8       30.09S
TRACY          SUNNY     77  55  45 NW7       30.12S
WINDOM         MOSUNNY   77  54  44 NW7       30.12S
WORTHINGTON    MOSUNNY   75  52  43 NE5       30.14S
$$

IAZ001>003-012>014-020>022-031-032-NEZ013-014-SDZ071-302300-
NORTHWEST IOWA

CITY           SKY/WX    TMP DP  RH WIND       PRES   REMARKS
CHEROKEE       PTSUNNY   78  55  45 W7        30.11S
DENISON        SUNNY     77  55  47 N7        30.10S
ESTHERVILLE    PTSUNNY   76  55  48 NW6       30.10F
LE MARS        MOSUNNY   77  54  44 CALM      30.12S
SIOUX CITY     MOSUNNY   78  53  41 CALM      30.11F
SPENCER        MOSUNNY   77  53  43 CALM      30.11F
STORM LAKE     MOSUNNY   75  55  50 NW5       30.12F
$$

ABBREVIATIONS USED IN REMARKS
   TC - TEMPERATURE IN CELSIUS
  WCI - WIND CHILL INDEX
   HX - HEAT INDEX
  VSB - VISIBILITY



USA.gov is the U.S. government's official web portal to all federal, state and local government web resources and services.